SL-14 DEB, 45326

Orbit data source: Space-Track

SL-14 DEB, 45326 is space debris in LEO originally from a launch on Thu, 15 Aug 1991 UTC launched from the Plesetsk Missile And Space Complex (PKMTR). Debris objects in space refer to the collection of defunct objects orbiting the Earth. Examples of debris include non-operational satellites, rocket bodies, and fragments generated from explosions, collisions, or faulty payload assembly.

Loading next visibility...
Identifier
45326, 1991-056BQ
Orbit
LEO
Country
Flag of CISCIS
Related business
Manufacturer
Unknown
Mission
Spacecraft
Bus & Motor
Unknown
Mass
Unknown
Launch date (UTC)
1991-08-15 (34 years ago)
Launch vehicle
Unknown
Launch site
Plesetsk Missile And Space Complex (PKMTR)
Object type
Payload
Rocket body
Debris
Shape & HBR
Unknown shape, 0.1 m
Radar Cross Section
Small (<0.1 m²)

Expand to show TLE details & history
Last TLE update: 2 days ago

TLE from 2 days ago
0 SL-14 DEB
1 45326U 91056BQ  25287.45777031  .00000855  00000-0  19480-2 0  9991
2 45326  82.5877 304.3885 0030259 287.9974  71.7856 13.24782541273659
Epoch: 2025-10-14T10:59Z
TLE epoch observation values (Epoch: 2025-10-14T10:59:11.354Z)
Latitude
-0.00001°
Longitude
116.34527°
Altitude
1,162.252 km
Speed
7.275 km/s
True Right ascension
20h 17m 33s
True Declination
0° 00' 00"
Sunlit
Object was in daylight at epoch
Visualization orbit readout
Latitude
Unknown
Longitude
Unknown
Altitude
Unknown
Speed
Unknown
Apparent Right ascension
Unknown
Apparent Declination
Unknown
Sunlit
N/A
Visualization observer readout
Local Sidereal Time
17:54:32
Azimuth
Unknown
Elevation
Unknown
Doppler factor
Unknown
Orbital elements
Apogee altitude
1,186.561 km
Perigee altitude
1,140.919 km
Semi-major axis
7,541.877 km
Eccentricity
0.00303
Inclination
82.5877°
RAAN
304.3885°
Arg. of periapsis
287.9974°
True anomaly
72.11536°
Mean anomaly
71.7856°
Eccentric anomaly
71.95044°
Mean motion
3.31378 °/min
Orbital period
108.64 mins
BSTAR
0.001948
Loading maneuver chart data...
Computing Atmospheric mass density...
Loading historical data...
Loading historical data...
Loading historical data...
Loading historical data...
Loading historical data...
Loading historical data...
Loading historical data...

Documentation

Showing up to 5 results
|